Javelina Jundred
100 Miler Race Results
October 29-30,2016
Starters: 530
Finishers: 285
Finish Rate: 53.8%

PlaceFirst NameLast NameBibAgeGenderGender PlaceCityStateCountryGun TimeMile 22.3Mile 41.8Mile 61.2Mile 80.6Finish Time
1ZachBitter230Male1CarmichaelCAUnited States13:30:282:36:434:57:397:38:0310:33:3813:30:28
2BrettSanborn430Male2AlbuquerqueNMUnited States15:15:083:07:345:57:269:08:1112:10:3715:15:04
3RyanKaiser30237Male3BendORUnited States16:36:492:39:555:25:268:44:0012:58:1616:36:49
4BrandonYonke923Male4MorrisonCOUnited States17:17:033:13:456:30:0010:14:4713:30:0017:17:03
5NealCollick15836Male5NegauneeMIUnited States17:37:303:12:466:20:2710:35:4114:14:0717:37:25
6TravisDietrich18934Male6San MarcosCAUnited States17:38:143:37:136:44:1110:13:3613:52:4517:37:50
7DrewMiller38930Male7New YorkNYUnited States17:39:153:25:416:33:199:46:1213:25:2717:39:10
8AdamHarris3030Male8North VancouverBCCanada17:58:193:14:236:33:5010:25:0714:33:2717:58:13
9UliStuwe48142Male9VenturaCAUnited States18:18:503:36:257:00:4910:48:2414:33:0918:18:40
10PaulShoen46535Male10PortlandORUnited States19:02:093:40:117:17:5911:19:4515:10:5319:01:53
11IainJones29839Male11IrvineCAUnited States19:03:453:44:557:20:5811:11:1115:07:0019:03:45
12MatthewEdell20435Male12BerkeleyCAUnited States19:11:133:34:276:57:4210:46:2614:46:3719:10:43
13StevenKent30849Male13North BendWAUnited States19:23:003:13:016:31:2410:58:2815:11:5319:22:53
14SteveSpeirs47450Male14Virginia BeachVAUnited States19:24:173:21:526:39:0510:42:0214:59:0819:24:17
15SeanRanney43339Male15CarmichaelCAUnited States19:26:013:34:057:02:4311:06:1515:24:5819:25:54
16NobuyoriTakeda48437Male16New YorkNYUnited States19:37:423:12:007:14:2211:20:2915:23:5419:37:42
17NeilFeldman31146Male17BoylstonMAUnited States19:38:374:07:468:00:4711:58:2415:51:5319:38:25
18AdamWalton45132Male18YorkPAUnited States20:14:004:01:567:50:5011:59:0816:09:0320:13:27
19BradPerson41651Male19PeoriaAZUnited States20:15:283:45:547:35:3211:44:5316:04:4920:15:12
20BrandonMewhort60431Male20VancouverBCCanada20:44:463:35:527:25:1711:48:1216:08:2920:44:29
21BenjaminEwers31446Male21Menlo ParkCAUnited States20:45:503:50:317:25:5511:26:1716:06:4720:45:42
22TrentPeelle4940Male22PhoenixAZUnited States20:49:193:33:187:28:5411:51:1516:10:1220:49:11
23DanaAnderson3233Female1South JordanUTUnited States21:03:433:53:207:48:2212:06:1716:39:1721:03:13
24JefferyHayes26557Male23PhiladelphiaPAUnited States21:14:293:51:127:44:2911:42:3416:20:2121:14:10
25EricWeeden3346Male24Arroyo GrandeCAUnited States21:19:534:04:058:14:0812:34:1517:04:0721:19:45
26JuanMendez38544Male25GlendaleAZUnited States21:27:103:35:117:14:4511:18:2715:57:0821:27:03
27MiguelPerez78734Male26White Sands Missile RangeNMUnited States21:32:443:17:396:53:0011:28:3016:40:1821:32:36
28AdelaSalt843Female2PhoenixAZUnited States21:33:063:37:047:22:3012:28:2016:44:3821:32:56
29StephenEngland20636Male27New YorkNYUnited States21:38:573:27:467:03:2111:29:1417:07:3921:38:49
30JonDewez18737Male28Newport BeachCAUnited States21:46:323:58:287:57:4812:20:2517:01:4221:46:22
31NathanAugustine7242Male29TucsonAZUnited States21:54:443:40:207:45:1612:40:2017:23:0621:54:44
32BenedictDugger19946Male30PhoenixAZUnited States21:55:104:04:328:02:2212:19:2017:14:3221:55:05
33Soon-ChulChoi2638Male31Mountain ViewCAUnited States21:52:403:57:468:10:2712:41:0117:13:1121:55:44
34WillRivera23046Male32ElizabethtownKYUnited States21:59:023:23:127:08:3814:18:0417:45:5021:58:48
35LucasHoran70435Male33EmeryvilleCAUnited States22:01:353:50:458:22:2512:42:1917:32:4822:00:29
36MattWhalen13738Male34San DiegoCAUnited States22:05:084:07:268:18:4112:44:4617:32:1922:04:37
37CamiloMartinez72135Male35New YorkNYUnited States22:17:003:43:287:52:5412:38:4617:53:5022:16:46
38AmyRasor43537Female3PhoenixAZUnited States22:18:224:01:527:55:4112:27:3017:22:5622:17:48
39ShawnPalandri40240Male36OmahaNEUnited States22:21:323:30:537:22:2312:04:3617:46:1122:21:23
40PacoRaptor73146Male37ChihuahuaMEXMexico22:28:103:38:417:57:4112:59:1518:00:0022:28:10
41MichaelMayberry32449Male38PhoenixAZUnited States22:28:423:32:227:31:5512:45:5617:45:1422:28:42
42TonyaKeyes31830Female4MesaAZUnited States22:32:083:52:177:49:4012:31:5017:30:0522:31:29
43ChrisRagsdale43139Male39SeattleWAUnited States22:32:113:50:367:29:4112:32:2217:30:2622:31:53
44SuzannaGuadarrama24628Female5HollywoodCAUnited States22:34:034:07:358:16:1512:38:3817:35:5722:34:03
45SeanNakamura11137Male40San DiegoCAUnited States22:34:083:34:258:18:0012:15:0017:46:3822:34:08
46AndresHernandez27047Male41DowningtownPAUnited States22:40:054:10:588:28:1612:50:3117:49:0722:39:28
47JohanWikman52153Male42NovatoCAUnited States22:40:174:30:009:30:0013:15:1118:00:0622:40:17
48Jimmy DeanFreeman74740Male43Los AngelesCAUnited States22:39:083:42:198:02:3713:01:2218:27:2622:42:29
49JonathanBrayton3939Male44NovatoCAUnited States22:43:554:21:028:35:5113:16:5618:19:0922:43:44
50RichardMorrison39547Male45AlpineCAUnited States22:46:063:54:128:10:1013:15:1317:52:0522:45:38
51BogieDumitrescu14642Male46BoulderCOUnited States22:46:283:45:218:03:1112:57:3818:02:1522:46:19
52MarcoZuniga70044Male47DurangoCOUnited States22:48:573:35:537:31:2212:17:2217:29:4622:47:11
53BryceWilliams52437Male48San DiegoCAUnited States22:49:433:32:268:18:4212:41:5417:58:4122:49:12
54RichMorris111143Male49GibsonsBCCanada22:52:283:55:287:57:3012:34:2116:51:3122:52:08
55DanWolfe52750Male50SpokaneWAUnited States22:53:554:44:189:13:2713:48:5718:22:2322:53:01
56MarkWerkmeister51255Male51Santa FeNMUnited States22:53:563:59:567:59:3212:42:0017:44:1822:53:29
57ChrisThorpe49040Male52Las VegasNVUnited States22:57:084:25:108:52:3412:59:3116:59:3122:56:40
58ChristopherErrecart20841Male53Long BeachCAUnited States22:50:414:17:248:53:4913:34:0718:28:0422:57:21
59KelceyKnott32642Male54St. PaulMNUnited States23:00:274:06:388:24:4013:37:3118:53:4822:59:44
60VasileSamartinean2141Male55SurpriseAZUnited States22:59:524:02:238:06:5012:30:4017:45:4722:59:44
61MikeTamoush69737Male56San DiegoCAUnited States23:01:064:15:368:28:2313:14:1718:14:0223:00:35
62JonChristley15546Male57PhoenixAZUnited States23:01:044:10:208:46:0013:00:0018:23:1623:01:04
63KirkWilson52539Male58AnthemAZUnited States23:02:194:07:448:23:3813:23:3417:55:0923:02:11
64WoodstockTaska48627Male59TempeAZUnited States23:08:483:54:398:52:4714:03:5118:21:5323:08:10
65KeithStraw2261Male60MalvernPAUnited States23:08:574:03:197:59:2412:43:5618:16:0623:08:57
66RaymondMullenax39750Male61BoiseIDUnited States23:10:344:01:278:12:1213:16:3318:27:1123:10:04
67StevenOvah41432Male62WhiteriverAZUnited States23:08:503:29:277:23:1312:40:3517:46:0823:10:43
68AndreaThorpe48940Female6LouisvilleCOUnited States23:12:223:58:178:18:4612:59:3518:10:3323:11:49
69MichaelLinscott25245Male63BellevueWAUnited States23:16:014:16:458:39:1412:29:1618:34:5223:15:18
70SudheerMaremanda4040Male64IssaquahWAUnited States23:16:014:29:039:08:3613:59:1618:34:2823:15:18
71MaiaDetmer18634Female7Las VegasNVUnited States23:17:254:00:348:08:3812:50:1017:59:3223:17:03
72ZandyMangold37143Male65BrooklynNYUnited States23:19:214:05:307:54:0012:25:4717:41:0923:18:31
73KevinCampbell61547Male66NashvilleTNUnited States23:19:354:18:259:04:0813:54:2418:45:2623:18:48
74GeorgeTeas28045Male67HerndonVAUnited States23:20:304:29:328:37:0313:15:3518:25:3423:19:56
75ToryKendrick30741Male68MissoulaMTUnited States23:29:174:08:548:01:1312:45:1918:28:5623:29:02
76CharlotteVasarhelyi50140Female8KitchenerONCanada23:29:173:57:268:06:3912:52:5918:15:5923:29:17
77DenneneHuntley28739Female9EdmontonABCanada23:32:073:48:587:46:4512:43:0118:07:5323:31:44
78BryanSchlinkmann45322Male69GunnisonCOUnited States23:34:304:00:009:00:0014:47:0018:00:0023:34:30
79DerekBeenfeldt8447Male70RenoNVUnited States23:36:474:34:169:06:5214:25:0319:42:2223:35:15
80JennyWelch51134Female10MonroviaCAUnited States23:33:404:22:088:47:3313:02:4218:51:1623:36:22
81HeatherHuggins28242Female11MonroviaCAUnited States23:33:404:24:348:49:4113:35:4218:51:1623:36:22
82FredRoberts1056Male71TucsonAZUnited States23:38:193:44:527:55:1412:54:0618:11:2023:37:33
83RobertJulian122948Male72PhoenixORUnited States23:39:213:44:297:25:3212:52:4518:42:1623:39:06
84MarkoHeinila26647Male73Santa FeNMUnited States23:40:483:57:338:00:4112:34:1818:46:2623:39:54
85LukeMontzingo39129Male74AustinTXUnited States23:40:184:30:128:59:2013:54:4918:50:1423:40:00
86SusanKramer33151Female12Cave CreekAZUnited States23:42:003:37:047:59:3313:05:3818:26:0923:41:33
87LucasTill17931Male75Roberts CreekBCCanada23:43:124:18:388:56:3613:48:2018:41:3623:42:37
88JeremyMayberry101046Male76PeoriaAZUnited States23:48:144:27:527:58:2514:28:2318:55:2823:45:27
89AmyChavez51951Female13Santa MonicaCAUnited States23:46:404:17:598:52:3913:46:0418:48:3323:46:40
90LoraZagnoli53554Female14Van NuysCAUnited States23:49:424:01:278:10:5913:03:1218:35:5523:49:12
91RichardMcKnight38347Male77ScottsdaleAZUnited States23:50:454:14:478:41:0713:51:1519:00:5523:49:57
92SandraVillines50244Female15San JoseCAUnited States23:52:334:21:338:36:4513:18:2818:32:0923:51:56
93RogerCurtis34355Male78FolsomCAUnited States23:46:204:35:369:29:3314:28:4919:39:1523:52:27
94JamesTevault48843Male79MesaAZUnited States24:13:063:46:108:40:0814:15:0519:04:4924:12:50
95JonParadowski41539Male80ReginaSKCanada24:17:213:49:138:33:1713:35:4718:43:0124:16:38
96VanPatterson76741Male81PhoenixAZUnited States24:22:133:47:117:43:4914:15:0619:04:3724:21:59
97CortlandWheeler51628Male82Fort MyersFLUnited States24:25:303:51:468:15:1012:59:0518:55:4624:25:16
98AlexanderTucker49430Male83TrumbullCTUnited States24:28:344:59:309:29:2114:39:3819:25:2524:28:05
99DavidIler43439Male84AustinTXUnited States24:35:214:15:208:36:4013:19:3518:54:0124:35:11
100DiranSirinian47050Male85Buenos AiresARGArgentina24:38:174:13:589:03:0814:23:1919:31:0624:37:57
101BrianWinter52646Male86GilbertAZUnited States24:39:495:04:169:53:1914:45:4820:04:0224:38:09
102JessicaHardy25934Female16Dana PointCAUnited States24:49:104:30:578:44:3513:52:1518:57:4524:47:19
103MeganCheng15435Female17San FranciscoCAUnited States24:52:434:13:268:23:3013:02:4018:01:5524:52:14
104PamelaChapman-Markle15261Female18San LeonTXUnited States24:54:223:59:369:19:3614:09:3619:41:2324:53:59
105MaggieDempsey18333Female19LondonGBRGreat Britain25:02:514:37:249:14:4314:29:0819:37:4525:01:36
106RobTrepa49342Male87PeoriaAZUnited States25:03:254:25:138:58:0312:59:1518:57:1325:02:41
107NickMohoric39034Male88AstoriaNYUnited States25:09:274:01:088:08:2712:53:3119:04:2725:07:58
108HenryWard 350546Male89ChelmsfordMAUnited States25:18:213:43:537:25:0212:37:5418:58:2325:17:06
109JoeSeeley46244Male90VenturaCAUnited States25:22:333:50:418:36:2213:53:4819:39:2225:21:40
110CarolynCaskie14929Female20TorontoONCanada25:25:044:13:119:14:2214:00:1719:05:0425:23:46
111NathanMoody39240Male91Los AlamosNMUnited States25:22:343:46:577:37:5312:23:5118:38:2525:28:19
112DeniEwell3741Female21ScottsdaleAZUnited States25:47:444:34:439:43:0514:12:0920:10:1025:46:46
113SteveDeluna77544Male92Fort HuachucaAZUnited States25:48:084:02:138:52:3514:55:2420:27:5725:48:00
114FrancesTennant6161Female22Lake ArrowheadCAUnited States25:50:504:14:238:17:3213:56:0919:57:3125:49:24
115MattSimmons46741Male93TucsonAZUnited States25:50:445:09:099:55:1314:47:3420:15:0125:49:31
116MikaHuhtanen4749Male94KuopioFINFinland25:54:114:50:3910:08:2014:09:5919:53:4325:52:29
117EmilyLuhrs36326Female23ChicagoILUnited States25:56:334:32:308:59:4714:43:2920:22:0925:56:21
118BenDicke131837Male95ChicagoILUnited States25:56:334:02:329:12:3915:03:3620:22:1025:56:21
119JosephBearss8346Male96DaconoCOUnited States25:56:334:32:319:14:0114:43:3020:22:1125:56:22
120IrvingBennett8955Male97PanamaPANPanama25:58:544:17:088:57:0614:52:4821:04:3425:58:29
121CeliaLeber35352Female24BendORUnited States26:02:094:44:1510:01:4715:19:2420:55:0526:00:58
122CaraScott46038Female25Diamond SpringsCAUnited States26:07:264:56:509:35:4714:49:4320:35:3026:05:53
123MattBishop9135Male98North Kansas CityMOUnited States26:10:204:26:419:54:4515:29:5520:52:1426:09:32
124LacyArcher6535Female26DurangoCOUnited States26:11:154:18:408:34:5113:12:3920:00:0726:09:58
125DouglasFranklin22836Male99ChicagoILUnited States26:10:264:14:249:38:3415:36:2721:21:1826:10:15
126StephenPetretto41736Male100PortlandORUnited States26:11:244:00:568:37:3414:00:5721:00:0626:10:49
127LandonBenson92436Male101PhoenixAZUnited States26:15:004:43:209:49:1714:59:0620:09:4926:15:00
128EmilyHalnon25432Female27EugeneORUnited States26:17:283:53:279:26:3915:16:3821:11:1626:17:16
129JeffFriedman22933Male102Grand JunctionCOUnited States26:17:243:31:147:11:5211:53:1918:42:4326:17:17
130WalterBortman9641Male103Aliso VeijoCAUnited States26:21:264:57:1610:13:2815:30:2621:12:4926:20:10
131JeffreyFong22544Male104HonoluluHIUnited States26:21:374:59:529:54:2415:07:2221:02:3026:20:26
132ReneeDrucas43048Female28Del MarCAUnited States26:22:514:29:449:04:2214:01:5819:28:2526:22:03
133BrianHamilton8847Male105HillsboroughCAUnited States26:22:576:00:0010:05:2315:28:1721:14:1126:22:57
134SteveCollins16246Male106DurangoCOUnited States26:25:484:20:219:25:4614:38:1420:19:3726:24:07
135LuisGomez24032Male107Clearwater BeachFLUnited States26:25:264:37:589:39:0615:20:3221:28:2026:24:26
136PauloAguilar3134Male108EncinoCAUnited States26:25:394:17:239:09:3814:25:5919:31:4726:24:31
137SusanSpeidel55549Female29ScottsdaleAZUnited States26:26:114:34:439:43:0514:22:1820:49:2026:25:13
138JonathanHunter28535Male109San DiegoCAUnited States26:27:123:44:368:30:0012:59:4020:34:4926:26:52
139KenLewis6953Male110Los AngelesCAUnited States26:27:044:52:389:46:2114:49:1120:45:0326:26:54
140JoelLivesey71938Male111Los AngelesCAUnited States26:28:404:27:3410:59:2916:55:0321:52:0626:28:40
141LauraMatz37930Female30SacramentoCAUnited States26:29:054:20:1010:56:3616:59:2021:45:5026:29:05
142BruceGungle2757Male112TucsonAZUnited States26:29:504:05:358:46:3014:26:2720:38:3126:29:13
143DerekSibley73344Male113OxbowSKCanada26:31:274:16:238:53:1615:05:2021:31:5626:29:56
144JenniferHamburg25545Female31Granite BayCAUnited States26:31:174:49:1610:11:4015:50:1821:13:1926:30:26
145JessiGoldstein23945Female32San FranciscoCAUnited States26:34:314:50:199:58:5414:56:5720:52:0926:32:49
146DeniseRenno43748Female33CarnationWAUnited States26:35:074:58:139:52:2515:15:0720:46:5426:33:24
147CarrieBrant6840Female34VancouverWAUnited States26:36:534:54:339:53:3914:58:2021:03:0026:35:15
148DougCassaro15031Male114IrvingTXUnited States26:37:024:16:028:30:1113:04:2019:01:5226:35:57
149JadeCarter14742Male115VictoriaBCCanada26:38:465:05:119:51:4814:45:2121:09:5926:37:39
150SusanDonnelly19253Female35Oak RidgeTNUnited States26:39:464:45:289:30:3515:01:2221:10:5126:38:05
151RazvanLazareanu34946Male116TorontoONCanada26:38:353:32:528:11:0813:04:4818:10:2226:38:25
152RobMcDearmon66745Male117Laguna BeachCAUnited States26:40:084:52:2610:07:1515:44:4121:39:2126:39:04
153HoaSchober45838Female36LittletonCOUnited States26:39:564:13:239:11:2713:59:2719:55:2726:39:23
154RobinPhelps72855Female37CarrolltonTXUnited States26:42:484:09:118:22:2813:31:5919:43:4026:41:37
155BryanMcKenney11953Male118WylieTXUnited States26:42:483:46:547:51:0913:20:4319:40:2326:42:19
156EmilioRomero11351Male119GuayaquilECUEcuador26:47:344:51:3610:13:1215:36:0621:53:5826:46:27
157SusanKokesh32850Female38Lake OswegoORUnited States26:49:205:02:2310:29:4315:50:1721:29:1326:49:20
158JimmyBrown12146Male120OmahaNEUnited States26:53:164:01:528:34:0613:52:5420:22:0326:52:34
159JamesSchneider69528Male121PrescottAZUnited States26:55:004:35:129:29:1715:15:0321:29:4826:54:29
160WilliamBaldyga92145Male122FircrestWAUnited States26:56:154:52:549:42:5014:57:3220:43:3026:54:39
161JeremyHendricks197937Male123BoulderCOUnited States26:58:084:29:219:37:2915:36:1621:31:3326:57:54
162LinliMa72044Male124BeijingCHNChina26:58:254:11:549:29:3515:03:0621:01:5026:58:25
163RaulBorja80840Male125Los AngelesCAUnited States27:00:074:59:0410:07:2915:43:2421:12:0126:59:00
164SpringVick31540Female39La MesaCAUnited States27:03:164:52:2410:07:1115:44:3821:40:0827:02:11
165AshleyOxton17336Female40Castle PinesCOUnited States27:03:284:58:439:49:4415:13:3521:11:1327:02:40
166NickGast90629Male126VenturaCAUnited States27:04:334:22:469:33:3214:46:3120:36:1927:04:17
167JarrodNeeley40143Male127CantonCTUnited States27:08:354:11:229:25:3715:23:1222:13:1627:07:53
168AlyxUlbrich49628Female41HonoluluHIUnited States27:09:545:25:4710:11:5314:58:3220:32:1927:09:14
169MadelineHarms26130Female42MadisonWIUnited States27:12:414:13:128:32:4314:22:3421:41:5527:11:57
170AdrianCrane17061Male128ModestoCAUnited States27:15:015:01:049:50:3515:16:0021:34:0627:14:08
171DanCollins16140Male129AlbuquerqueNMUnited States27:08:194:14:049:03:2415:06:5120:53:0327:16:05
172RyanDempsey18534Male130San FranciscoCAUnited States27:18:234:49:2610:23:0016:16:2221:47:3827:17:33
173JohnDelozier18041Male131Shady ShoresTXUnited States27:19:204:30:308:58:4214:51:3720:39:3127:18:03
174Jos´┐ŻGamez71444Male132GlendaleAZUnited States27:22:274:07:119:48:2316:12:3621:38:4027:22:20
175KimberlyJacobs29241Female43DenverCOUnited States27:27:053:54:048:37:2314:29:1621:25:3527:27:05
176KatieTrent49224Female44RenoNVUnited States27:29:505:18:2210:43:4016:27:2322:18:2427:28:28
177JimRyan44555Male133SammamishWAUnited States27:30:014:12:258:39:1214:27:3521:36:0427:29:05
178CliffordMatthews5353Male134AlbuquerqueNMUnited States27:30:454:58:2610:47:1916:06:0821:57:1827:29:12
179CrisTenorio48746Male135BellflowerCAUnited States27:32:324:28:359:26:1615:05:4121:45:5827:30:45
180MartinaO'connell40534Female45KanataONCanada27:34:224:19:139:29:0515:44:0121:59:1827:33:49
181AlysonJay29337Female46FlagstaffAZUnited States27:34:554:03:288:56:2814:07:0420:43:3127:34:17
182DanLenz142141Male136CameronNCUnited States27:31:513:34:5410:50:4416:45:0622:11:0027:35:04
183HeatherFicke21527Female47CockeysvilleMDUnited States27:36:404:43:4910:05:5316:58:5321:58:5827:35:33
184JamesFicke21755Male137CockeysvilleMDUnited States27:36:444:43:4710:06:3715:45:0221:59:0227:35:38
185RichardBenoit4448Male138PortlandORUnited States27:35:574:22:4710:37:1916:04:2921:29:1827:35:48
186BrianKlimowski31652Male139FlagstaffAZUnited States27:37:584:55:5310:30:0816:28:3422:30:5127:37:04
187AlexanderStroup48042Male140San LeandroCAUnited States27:40:394:23:159:53:1716:03:1122:16:5827:39:50
188ShaneJones29938Male141RiverbankCAUnited States27:42:504:58:1710:33:0416:08:5821:57:0927:41:58
189BarryKitazumi32254Male142San FranciscoCAUnited States27:45:035:14:3510:48:3816:33:5022:28:3427:43:32
190LiliaGonzalez92243Female48Playa Del ReyCAUnited States27:44:185:21:2910:47:3217:03:2922:34:1027:44:18
191AndrewO'brien88952Male143Black RockAUSAustralia27:49:064:48:4310:15:2516:02:5021:49:5027:47:48
192SueO'brien89055Female49Black RockAUSAustralia27:49:074:48:4310:14:5916:02:5021:49:5027:47:48
193SteveHernandez27149Male144El SegundoCAUnited States27:50:095:01:3610:35:0016:20:2722:34:0227:48:57
194DavidGoldstein23847Male145Coto De CazaCAUnited States27:50:095:01:3810:35:1016:20:2622:34:1427:48:58
195JillWeisman50860Female50Santa MonicaCAUnited States27:49:504:18:018:30:0013:51:2820:41:1327:49:50
196DanelleSoto68632Female51Litchfield ParkAZUnited States27:51:284:29:139:59:3716:05:2522:14:0527:50:34
197VinceVillegas16843Male146San DiegoCAUnited States27:52:125:13:1410:17:2915:34:5421:47:1827:51:18
198DavidYancey53052Male147TampaFLUnited States27:55:384:37:109:59:4915:46:1922:02:3227:54:34
199JasonReathaford32748Male148KennewickWAUnited States27:56:484:44:3310:09:4814:58:4221:45:2827:55:31
200RedfieldBaum81744Male149ScottsdaleAZUnited States27:58:214:48:4110:28:3316:32:2522:37:3127:56:36
201DavidBliss70754Male150PhoenixAZUnited States27:58:594:49:4910:39:4716:33:0722:42:5527:58:59
202ShannonFarar-Griefer5555Female52Hidden HillsCAUnited States28:00:504:33:4410:06:3316:00:0821:59:0427:59:54
203SteveGarrity23235Male151WilsonWYUnited States28:02:114:47:5910:30:3516:07:3621:52:3628:00:34
204WadeKao30442Male152HoustonTXUnited States28:01:354:55:4310:34:5016:29:3122:30:0128:01:13
205JuanEscobar20953Male153El PasoTXUnited States28:03:405:09:3010:47:4616:19:3322:15:4528:03:40
206DarrelFolkert2346Male154Redondo BeachCAUnited States28:06:594:17:229:21:3815:22:1421:41:5928:06:14
207JacquelineFolkert61146Female53Redondo BeachCAUnited States28:06:584:17:229:21:3815:22:4721:42:0028:06:14
208GeorgannaQuarles42962Female54RenoNVUnited States28:08:404:58:0510:39:2616:17:3922:18:3228:07:25
209ThomasLopes343444Male155RiverbankCAUnited States28:09:434:58:1410:29:2916:08:5722:02:5028:08:50
210ErinDial36930Female55TucsonAZUnited States28:09:394:38:3010:10:1115:51:1921:50:4328:09:25
211HeatherMiller70138Female56St. CharlesMOUnited States28:10:004:35:149:59:3015:15:0521:39:1628:09:30
212DanielWhite33829Male156TacomaWAUnited States28:14:134:40:539:51:5315:22:4522:13:3128:13:13
213JonBlankenship9243Male157BurlesonTXUnited States28:16:444:41:299:52:1315:40:2421:56:4328:16:11
214ChadSwanson48330Male158RenoNVUnited States28:17:335:12:4210:44:2016:04:0122:22:4228:16:51
215JanadelHarris26236Female57FrederickMDUnited States28:19:134:33:409:12:1615:00:1821:49:4228:17:48
216PamelaGeernaert23548Female58FrederickMDUnited States28:19:144:33:419:10:0315:00:1221:50:0428:17:49
217DaveHope11251Male159ForesthillCAUnited States28:18:584:11:499:23:4115:13:3821:52:1428:18:45
218CindyCarlson31943Female59CerritosCAUnited States28:21:455:02:0010:21:3416:02:3121:58:4928:20:35
219BrianWilford91652Male160TucsonAZUnited States28:21:595:11:1511:04:1717:03:0022:47:2228:20:41
220Soren HadsundMortensen39649Male161CopenhagenDNKDenmark28:25:005:15:3110:41:4116:39:4922:40:4628:23:28
221MikiHiguchi27445Female60Redwood CityCAUnited States28:25:015:10:2010:40:1216:40:0922:40:3628:23:40
222DavidCarder14453Male162CummingGAUnited States28:25:154:39:1410:24:5617:17:5823:11:2128:24:32
223SteveYoung53351Male163DublinOHUnited States28:24:584:12:049:29:0216:14:2422:17:2228:24:47
224JodiWeiss5646Female61Highland BeachFLUnited States28:25:525:09:1510:42:3316:19:4922:50:3928:25:03
225BlueKusaka34043Male164TorranceCAUnited States28:28:395:15:1010:53:2616:42:2122:47:2528:27:02
226KristenKlink32341Female62AuburnCAUnited States28:29:195:07:0010:35:2415:57:4921:58:0928:28:22
227MarkShields73244Male165EscondidoCAUnited States28:29:444:27:179:30:4215:13:1022:03:4328:28:54
228AmandaSellers120930Female63DenverCOUnited States28:30:344:49:3510:38:3516:44:2022:52:1428:29:48
229KristinHarman60836Female64DenverCOUnited States28:30:344:49:3710:38:3516:44:2022:52:1428:29:49
230DanaNotman10432Female65SeattleWAUnited States28:32:024:50:0110:23:2716:29:0022:21:0028:31:03
231MeredithWells77036Female66DenverCOUnited States28:32:004:47:5310:13:5916:08:5822:29:5228:31:08
232MikeLynch36452Male166HendersonNVUnited States28:39:395:09:1710:27:5616:35:2822:53:2828:37:47
233MarkSpencer47542Male167HendersonNVUnited States28:39:395:07:5610:26:3216:35:3522:53:3828:37:56
234TimHackett25350Male168MesaAZUnited States28:38:364:39:0010:13:2416:01:5422:20:5728:38:26
235AbbeyHendricks26834Female67PortlandORUnited States28:40:134:51:5210:25:2616:08:1822:29:1328:39:32
236ChristopherMorhain39430Male169AnchorageAKUnited States28:43:155:04:2310:46:0016:45:3722:58:2228:42:35
237SylviaVan Os49939Female68EdmontonABCanada28:43:093:55:228:03:3612:58:5923:55:0228:42:39
238JoshuaSun56331Male170DavenportIAUnited States28:44:224:39:139:49:2615:40:4222:20:5828:44:02
239LauraEuckert21048Female69Fort WorthTXUnited States28:46:045:01:4510:34:4816:40:2723:08:4928:44:20
240BenjaminCoon16540Male171DenverCOUnited States28:45:053:59:458:36:2814:31:4122:59:4228:44:41
241ElijahSlate14339Male172New BraunfelsTXUnited States28:45:494:01:129:06:2815:29:3121:46:4228:45:38
242ShelleyCook70341Female70GurneeILUnited States28:44:194:34:529:50:5615:47:1022:10:2128:45:45
243BegeredGhazi55941Female71FresnoCAUnited States28:49:184:54:5110:22:4516:11:1622:45:2828:47:51
244ScottHarlan26048Male173FresnoCAUnited States28:49:184:54:529:58:3216:11:1822:45:2928:47:51
245ToddLane34747Male174IrvingTXUnited States28:50:304:50:499:43:3415:22:5021:54:3028:48:47
246SamProkop42647Male175New OrleansLAUnited States28:51:134:59:4610:52:0516:49:0123:04:1328:50:24
247ChrisHasselback26444Male176Castle RockCOUnited States28:52:455:24:5011:47:0417:11:1722:56:2128:51:04
248MonaGutierrez25054Female72Huntington BeachCAUnited States28:53:323:58:3410:38:3815:58:3423:17:1428:52:07
249SamCrahan46427Male177Oak CreekWIUnited States28:56:354:53:2810:03:2515:55:1922:11:4628:55:15
250KellyAney1540Female73Cannon FallsMNUnited States28:56:475:19:2611:14:4717:00:4223:10:4928:55:40
251StephenRodgers44048Male178Highlands RanchCOUnited States28:56:385:10:0310:13:1515:32:2722:18:0228:56:26
252VictoriaOlson91940Female74MoundMNUnited States28:56:475:20:3211:15:5417:01:3623:12:3028:56:47
253KimOldham9745Female75Ellicott CityMDUnited States28:57:104:24:4310:34:5217:08:2023:18:1628:56:53
254CarsonGalloway23126Male179Des MoinesIAUnited States29:08:595:06:039:57:4915:42:1122:29:0129:07:21
255AnakaNorfleet62442Female76LakewoodCOUnited States29:08:585:03:1310:38:4916:30:2622:36:3829:07:36
256KenReicher43652Male180San LeandroCAUnited States29:08:525:35:1111:05:0516:57:4123:25:2429:07:57
257AlexiaJoens29543Female77Long BeachCAUnited States29:09:145:00:4410:55:3317:02:4022:58:1029:08:23
258BrenanOliver24734Male181San DiegoCAUnited States29:09:084:59:0511:04:5417:42:4823:40:5929:08:43
259BruceKeele3549Male182BridgewaterNJUnited States29:10:104:55:0010:09:2816:17:5222:48:2429:08:49
260JeffBrettler10955Male183Los AngelesCAUnited States29:10:204:53:1310:15:5516:19:1022:48:2629:09:19
261NahokoIwata28844Female78Okayama-ShiJPNJapan29:11:334:41:1911:15:0817:19:0323:09:0529:10:30
262DougCamann70949Male184ClarksboroNJUnited States29:11:334:14:319:52:0616:39:0123:00:2029:10:33
263ReneRodarte88861Male185Lake ForestCAUnited States29:11:404:31:219:27:0116:09:3123:06:0929:10:43
264KarenBonnett-Natraj6060Female79West SacramentoCAUnited States29:15:264:50:1710:39:2216:05:3922:43:4329:14:36
265ArnieFonseca Jr75957Male186PhoenixAZUnited States29:15:065:45:2611:32:1017:54:0023:14:0829:14:45
266JeffLe29033Male187SacramentoCAUnited States29:16:225:02:0210:39:4816:08:3122:23:2129:15:52
267PatrickGrengs36751Male188West RichlandWAUnited States29:19:425:12:1311:37:0317:58:1723:39:3129:18:00
268AngieWhite51749Female80LouisvilleKYUnited States29:19:094:52:3310:44:0916:55:1923:09:2429:18:30
269MattMurphy21642Male189CelebrationFLUnited States29:19:575:37:3411:05:4617:14:1223:15:4629:18:36
270KarenCollins52254Female81LouisvilleKYUnited States29:19:205:18:2311:18:1816:48:0923:10:2729:18:41
271ChristopherBaca89943Male190Sandia ParkNMUnited States29:22:075:10:1110:37:2917:33:3023:40:1029:21:06
272GiovanniGuevarra24953Male191North Las VegasNVUnited States29:24:295:22:1211:04:5916:50:3523:01:2829:22:43
273MattCarroll14536Male192San DiegoCAUnited States29:26:304:25:029:04:2314:45:5521:58:0029:26:11
274HuyLe35044Female82RedlandsCAUnited States29:28:155:35:2012:15:4718:04:1023:45:4629:27:04
275LauraBello62153Female83San FranciscoCAUnited States29:32:105:46:0811:24:0017:39:0123:50:0329:30:48
276DavidThomas78941Male193Santa CruzCAUnited States29:32:504:44:1811:09:5417:34:0023:35:5329:31:44
277SpencerBriggs11440Male194AlbuquerqueNMUnited States29:33:305:02:2211:05:2617:30:1223:54:4029:33:04
278Ann MarieAhern4348Female84AltadenaCAUnited States29:34:585:35:0812:32:1217:58:1923:52:1029:33:53
279LeeHulbert28450Male195GilbertAZUnited States29:35:385:58:1611:24:2017:11:3423:24:3729:33:55
280DougLeary35153Male196BoulderCOUnited States29:35:314:49:5910:27:3816:20:0522:33:0729:34:00
281TroyWolford12347Male197Council BluffsIAUnited States29:35:004:45:1611:23:1617:57:3323:50:1829:34:19
282ToddWolford44451Male198El PasoTXUnited States29:36:334:42:4711:18:2217:54:0923:45:0429:35:51
283CarlosPineda41839Male199Los AngelesCAUnited States29:36:074:52:3910:08:2216:47:4222:39:0029:35:53
284RobertAndrulis36548Male200ChandlerAZUnited States29:43:445:00:2610:41:0114:59:2523:47:1229:43:10
285AngelaSchatz45049Female85IrvineCAUnited States30:32:345:18:5011:03:0116:36:2523:29:1630:32:12
--------------
DNFDNFDNFDNFDNFDNFDNFDNFDNFDNFDNFDNFDNFDNF
-AlicjaGrace10834Female-ChicagoILUnited States-4:35:3510:26:1312:27:2417:59:5723:36:29
-JesseMurray39846Male-Santa RosaCAUnited States-4:28:419:35:1114:56:0419:57:5026:05:56
-EricBoswell9847Male-BozemanMTUnited States-4:04:578:13:5212:17:3114:39:32DNF
-TimPek45631Male-El PasoTXUnited States-3:44:088:18:5213:21:2115:53:21DNF
-TomGrant24358Male-ConiferCOUnited States-4:26:479:52:4612:30:3916:17:11DNF
-MarkThompson12439Male-Iowa CityIAUnited States-3:26:477:20:5711:55:2216:51:46DNF
-BrianHsia28135Male-New YorkNYUnited States-3:30:067:35:3312:30:4818:05:15DNF
-TamaraDay69246Female-SurreyBCCanada-4:18:358:45:5413:23:5018:45:29DNF
-VonFagan71248Male-ChicagoILUnited States-3:53:028:46:2613:33:1019:13:13DNF
-ThorJohansen10140Male-PrescottAZUnited States-3:39:158:06:1913:53:2319:40:34DNF
-MargaretMacdonald36834Female-MinneapolisMNUnited States-4:15:079:58:3015:03:2520:15:55DNF
-StevenCrawford17144Male-MesaAZUnited States-4:52:2310:23:3615:53:0422:07:35DNF
-DavyCrockett8558Male-Saratoga SpringsUTUnited States-4:00:399:21:5814:49:4722:18:56DNF
-JonGnass23661Male-BendORUnited States-4:11:359:34:1615:24:1422:19:47DNF
-DeanYankovich53134Male-OrangeCAUnited States-4:55:3410:08:4115:02:3622:38:59DNF
-ChristineDancey17655Female-San DiegoCAUnited States-4:51:4110:33:4116:15:0722:45:40DNF
-CodyLaw34838Male-Woodland HillsCAUnited States-4:24:479:37:2314:39:1222:46:04DNF
-EricSpector70669Male-KensingtonCAUnited States-5:17:1711:04:4216:56:4822:59:59DNF
-TomDobson19139Male-ScottsdaleAZUnited States-4:20:219:40:4515:37:1523:00:40DNF
-MorrieRipley43942Male-Spruce GroveABCanada-4:39:5110:37:5116:44:4023:16:38DNF
-DenisTrafecanty73474Male-Santa YsabelCAUnited States-6:13:0111:58:0917:52:3223:20:46DNF
-HeatherScott46139Female-SausalitoCAUnited States-5:20:5010:51:1616:29:2223:21:25DNF
-JimLeinbach35661Male-MesaAZUnited States-5:53:1911:43:3817:21:0923:25:26DNF
-MargaretWood22226Female-Los AlamosNMUnited States-5:32:4711:03:3617:12:0923:43:16DNF
-BlakeWood22358Male-Los AlamosNMUnited States-5:18:3211:03:3717:12:1023:43:18DNF
-DennisDrey19665Male-AlbuquerqueNMUnited States-5:16:5210:39:1217:04:0323:46:37DNF
-JimDoyle66847Male-Santa MonicaCAUnited States-5:26:2211:00:3416:52:0923:51:55DNF
-HectorReyes43834Male-ArvadaCOUnited States-4:03:149:19:4515:52:1723:52:05DNF
-MailiCosta1238Female-Corte MaderaCAUnited States-5:13:2710:08:2915:42:5423:52:59DNF
-TamaraAarin1848Female-Woodland HillsCAUnited States-5:26:2211:00:2317:02:3124:00:45DNF
-RobertCarter7144Male-RogersARUnited States-4:34:1713:52:3619:49:1924:01:37DNF
-ElizabethMcGarraugh52340Female-KatyTXUnited States-5:16:4111:11:0417:25:2424:04:37DNF
-MauraBurk12930Female-San FranciscoCAUnited States-4:36:1711:03:4317:11:3524:15:41DNF
-AdenaSchutzberg9452Female-SomervilleMAUnited States-5:31:5811:23:3717:35:5024:29:16DNF
-PaulaGalloway19853Female-Campbell RiverBCCanada-5:40:3511:35:0717:33:0324:48:50DNF
-MattHagen66645Male-SeattleWAUnited States-4:41:1310:57:3817:50:3225:02:48DNF
-KimberlyKuhlmann33738Female-TacomaWAUnited States-5:04:2710:58:5617:49:1525:02:52DNF
-GregOpgenorth53936Male-MadisonWIUnited States-4:59:0311:44:5218:50:0925:42:17DNF
-AdamFeder11050Male-WoodstockGAUnited States-5:31:1611:50:2818:58:1826:10:19DNF
-MaureenCottrell22153Female-San DiegoCAUnited States-5:49:0711:49:5218:43:3726:10:27DNF
-DaveKoeck60953Male-CarmichaelCAUnited States-5:42:2511:45:3418:54:4226:19:10DNF
-SamCollier15964Male-NampaIDUnited States-4:59:1912:10:1418:35:5427:49:19DNF
-JanessaTaylor538Female-RedmondORUnited States-3:10:006:12:049:58:53DNFDNF
-MichaelCarson129Male-TempeAZUnited States-3:10:006:10:2210:31:37DNFDNF
-MaddyMcCarthy38132Female-NewburyportMAUnited States-3:23:416:58:1011:26:48DNFDNF
-MylesFennon21237Male-New YorkNYUnited States-3:22:466:44:1012:27:31DNFDNF
-AlanFischer21932Male-Sierra VistaAZUnited States-3:28:487:14:5112:39:25DNFDNF
-AdrianStanciu47647Male-Manitou SpringsCOUnited States-3:48:427:25:3212:41:05DNFDNF
-AaronDement18249Male-NapervilleILUnited States-4:07:088:14:1312:58:57DNFDNF
-AndrewSinger5050Male-Paradise ValleyAZUnited States-3:58:267:54:4613:21:22DNFDNF
-StevenFunke13155Male-Alta LomaCAUnited States-4:06:478:10:5413:28:35DNFDNF
-ScottCoberly15740Male-San DiegoCAUnited States-3:47:038:39:0913:33:37DNFDNF
-MikeMefford38441Male-Johnson CityTNUnited States-4:17:398:25:0113:40:34DNFDNF
-ChrisHarrison26352Male-Paradise ValleyAZUnited States-4:23:178:44:2313:47:51DNFDNF
-FrankPage20741Male-VancouverWAUnited States-3:56:286:59:0113:48:25DNFDNF
-JoseOrillac28644Male-PanamaPANPanama-3:44:377:31:2613:52:33DNFDNF
-GeoffreyFoote22648Male-ChandlerAZUnited States-3:54:138:21:0713:54:16DNFDNF
-DerekBroadbent11835Male-FlagstaffAZUnited States-4:04:168:34:4413:59:22DNFDNF
-WillemPennings72949Male-RedlandsCAUnited States-3:25:127:39:4414:02:17DNFDNF
-ConstanceWannamaker50444Female-El PasoTXUnited States-4:17:168:41:2614:03:32DNFDNF
-JustinCurreri17431Male-GlastonburyCTUnited States-4:06:058:21:3714:16:32DNFDNF
-LisaMoore3636Female-PeoriaAZUnited States-4:24:259:19:1414:17:32DNFDNF
-BenJohnson29639Male-OrangevaleCAUnited States-3:44:257:46:2314:18:59DNFDNF
-JessicaPekari10231Female-El PasoTXUnited States-3:53:258:12:1314:20:41DNFDNF
-AlexanderHernandez26941Male-VenturaCAUnited States-4:08:448:57:4014:31:28DNFDNF
-DanielFord22728Male-TahokaTXUnited States-5:22:029:47:4814:42:54DNFDNF
-SadieBriggs7941Female-McKinneyTXUnited States-4:12:148:57:2214:43:21DNFDNF
-MartyZucker53657Male-OrindaCAUnited States-4:16:559:03:3815:09:53DNFDNF
-PaulMaisel2446Male-Highlands RanchCOUnited States-3:52:049:04:0215:11:54DNFDNF
-ChrisWorden45239Male-ScottsdaleAZUnited States-4:38:299:46:3315:35:08DNFDNF
-RobbyOrgan11527Male-PhoenixAZUnited States-4:15:528:59:3315:35:19DNFDNF
-MelissaRaguet-Schofield43237Female-Fort CollinsCOUnited States-5:03:069:50:1815:42:55DNFDNF
-LisaBuzzeo13634Female-ScottsdaleAZUnited States-4:38:409:37:0215:57:53DNFDNF
-MarioOscal41063Male-BreaCAUnited States-4:43:119:52:4315:59:36DNFDNF
-JasonHenderson26745Male-Las VegasNVUnited States-4:57:1310:17:0916:02:00DNFDNF
-JacobElkjaer10746Male-CopenhagenDNKDenmark-4:44:229:55:1016:09:02DNFDNF
-HeatherKrug33644Female-Marina Del ReyCAUnited States-5:45:0612:32:5516:14:08DNFDNF
-TerraLovelin36238Female-Las VegasNVUnited States-4:55:4410:34:5116:25:16DNFDNF
-StevenGrossman24456Male-Los RanchosNMUnited States-4:45:5110:10:4316:29:45DNFDNF
-MikeDaku17557Male-FairbanksAKUnited States-4:55:3010:32:1316:38:46DNFDNF
-ZacharyGonzalez24143Male-FarmingtonNMUnited States-3:53:279:12:4116:41:18DNFDNF
-AmyNovotny1934Female-GilbertAZUnited States-4:01:319:20:1716:44:26DNFDNF
-MaggieHackett25136Female-TucsonAZUnited States-4:50:2610:06:4316:44:34DNFDNF
-DanaPearcy72643Female-ClarkdaleAZUnited States-5:19:4911:13:5817:07:03DNFDNF
-DonnZea5858Male-Grass ValleyCAUnited States-4:34:4110:24:4817:07:11DNFDNF
-WalterOstdiek Jr33241Male-FremontCAUnited States-4:58:5010:50:2617:11:39DNFDNF
-MarkLahaie34456Male-OlympiaWAUnited States-5:10:5611:07:4617:12:31DNFDNF
-KimWindver17747Female-RedlandsCAUnited States-4:30:3110:24:1417:13:23DNFDNF
-KimDavidson17856Female-Coeur D'AleneIDUnited States-4:48:4310:19:1517:16:20DNFDNF
-DanielleZemola38738Female-TallahasseeFLUnited States-5:01:4010:48:2517:16:45DNFDNF
-JordanSchmidt45422Male-RamseyMNUnited States-4:47:0011:09:1017:18:25DNFDNF
-RebeccaGast23324Female-Grand RapidsMIUnited States-4:22:469:32:4117:19:42DNFDNF
-NormannSalomo44648Male-Bad AbbachDEUGermany-3:57:2110:01:0317:22:34DNFDNF
-JeffRussell4656Male-FresnoCAUnited States-5:12:2811:25:0817:23:00DNFDNF
-WaelSammur44754Male-RaymoreMOUnited States-4:15:0710:08:3117:23:25DNFDNF
-TylerBurgess12627Male-JoplinMOUnited States-4:14:3211:11:1017:27:50DNFDNF
-GregWiefel52035Male-Long BeachCAUnited States-5:34:3010:42:2117:28:22DNFDNF
-SarahOliver10053Female-FresnoCAUnited States-5:15:0011:22:5817:32:16DNFDNF
-SherriTwedt81652Female-VerdiNVUnited States-5:53:1011:33:4817:35:19DNFDNF
-JenniferPattee72444Female-San FranciscoCAUnited States-5:52:5512:30:0717:40:53DNFDNF
-JulianMartinez5454Male-OaklandCAUnited States-5:26:2711:37:5317:42:34DNFDNF
-ErnestStolen47867Male-AnchorageAKUnited States-5:21:5211:28:4717:44:54DNFDNF
-ToddSpencer69635Male-ChandlerAZUnited States-5:20:0111:32:2418:00:03DNFDNF
-AlexanderSchwenkenberg45937Male-VenturaCAUnited States-4:38:2510:24:1218:00:12DNFDNF
-NikiPasion72331Female-RaleighNCUnited States-4:38:5610:24:1318:00:14DNFDNF
-TriciaKelsey30646Female-VenturaCAUnited States-4:38:2911:03:2718:00:44DNFDNF
-BarbCampbell14056Female-PalgraveONCanada-5:19:1611:38:2218:01:01DNFDNF
-DarlaWest51453Female-Citrus HtsCAUnited States-6:18:2211:22:5618:07:36DNFDNF
-ScottEddie20340Male-TustinCAUnited States-4:49:4611:04:3818:07:56DNFDNF
-JoyceLee3835Female-FremontCAUnited States-5:21:4411:29:1218:18:02DNFDNF
-TheodoreCory16739Male-Saint PetersburgFLUnited States-3:52:378:27:0418:18:43DNFDNF
-AmeliaKegan30533Female-WashingtonDCUnited States-5:03:3711:02:1818:19:43DNFDNF
-AntonettePrather42447Female-GarnerNCUnited States-4:41:2110:27:4418:24:03DNFDNF
-J.D.Prather13054Male-GarnerNCUnited States-4:41:2110:27:5718:24:03DNFDNF
-JenniferDicus18840Female-SparksNVUnited States-5:58:5412:05:1918:27:11DNFDNF
-SteveGoodman42367Male-ScottsdaleAZUnited States-5:06:3811:43:3518:30:04DNFDNF
-JoyceLopez12730Female-Los AngelesCAUnited States-5:35:0212:32:4518:35:56DNFDNF
-MarlisaPitchford41953Female-RialtoCAUnited States-5:35:2212:15:4818:46:58DNFDNF
-JasonYaeger52943Male-RosevilleCAUnited States-4:51:3511:23:1618:50:58DNFDNF
-ElisaSchasse44837Female-HonoluluHIUnited States-4:30:2711:16:1019:01:30DNFDNF
-StephenOchoa40657Male-MesaAZUnited States-5:24:3911:47:4819:04:33DNFDNF
-WallyGoettl7070Male-StillwaterMNUnited States-5:55:2012:01:2320:39:08DNFDNF
-ClaudiaFoley22453Female-El Dorado HillsCAUnited States-5:22:1213:23:0420:40:53DNFDNF
-ChristinaCastro15142Female-Los AngelesCAUnited States-6:43:3413:37:2821:35:14DNFDNF
-JeffreyCalvert777150Male-Sherman OaksCAUnited States-5:11:5411:29:0921:50:22DNFDNF
-JimBisbey9051Male-ScottsdaleAZUnited States-5:33:4611:43:1323:18:36DNFDNF
-KristenKercher30946Female-BedfordNHUnited States-4:18:0016:17:3324:23:26DNFDNF
-SummerWesson51339Female-GlendaleCAUnited States-5:29:0312:04:3926:38:54DNFDNF
-BarbaraMezaki38653Female-Alta LomaCAUnited States-4:42:1211:52:0726:44:37DNFDNF
-FilipBoelen9339Male-Steamboat SpringsCOUnited States-6:32:3813:51:5326:48:06DNFDNF
-LuisGuerrero24853Male-JuriquillaMEXMexico-3:06:387:22:0328:54:41DNFDNF
-JunWatanabe50640Male-BoulderCOUnited States-3:36:207:40:11DNFDNFDNF
-RyanTimme49129Male-New HavenCTUnited States-4:01:208:01:32DNFDNFDNF
-BrentBoyle10543Male-Park CityUTUnited States-3:37:098:04:33DNFDNFDNF
-StephenWoodall52838Male-Oro ValleyAZUnited States-3:45:258:04:41DNFDNFDNF
-CharlesHammer82843Male-GilbertAZUnited States-3:52:438:10:27DNFDNFDNF
-AdamPratt42541Male-WheatonILUnited States-3:56:288:23:50DNFDNFDNF
-ToddLeigh35574Male-San DiegoCAUnited States-6:45:168:36:03DNFDNFDNF
-DouglasDonovan19346Male-HendersonNVUnited States-3:54:078:40:47DNFDNFDNF
-CarlHineline70541Male-PlanoTXUnited States-4:01:328:46:21DNFDNFDNF
-DavidEmerson6262Male-Twin FallsIDUnited States-4:30:099:07:50DNFDNFDNF
-MarcelMacfarlane37044Male-CarnduffSKCanada-4:49:039:12:14DNFDNFDNF
-TravisSpalding47342Male-TucsonAZUnited States-4:05:339:33:38DNFDNFDNF
-MichaelSchnepp45732Male-New HavenCTUnited States-4:18:229:41:03DNFDNFDNF
-JamesFlanary22037Male-Colorado SpringsCOUnited States-4:54:519:45:47DNFDNFDNF
-CameronHardy25847Male-RichlandWAUnited States-4:27:569:47:36DNFDNFDNF
-ShaunDecasas69432Male-FairbanksAKUnited States-4:24:249:49:54DNFDNFDNF
-TimGorichanaz24227Male-PhiladelphiaPAUnited States-4:27:1510:01:37DNFDNFDNF
-ChrisDoolittle31051Male-Los AngelesCAUnited States-4:35:5010:02:05DNFDNFDNF
-JoshuaMoulthrop10342Male-EscondidoCAUnited States-4:39:2710:02:34DNFDNFDNF
-LaiSun48252Male-NewtownCTUnited States-4:26:4410:05:07DNFDNFDNF
-EliZabielski53424Male-BoulderCOUnited States-5:03:3810:21:52DNFDNFDNF
-EdgarCampos14163Male-Chula VistaCAUnited States-4:15:2610:25:00DNFDNFDNF
-SebastienDurandeu20039Male-OtisORUnited States-4:51:5210:25:27DNFDNFDNF
-DavidKalal30347Male-RahwayNJUnited States-5:01:0010:33:36DNFDNFDNF
-PaulDeuchar90041Male-ScottsdaleAZUnited States-4:48:3010:41:24DNFDNFDNF
-JeffreySnyder-Reinke47246Male-BoiseIDUnited States-4:49:3710:48:30DNFDNFDNF
-StephanieEldore31742Female-Priest LakeIDUnited States-5:00:4711:04:23DNFDNFDNF
-ColleenCashman14838Female-San DiegoCAUnited States-4:59:0511:04:53DNFDNFDNF
-ShawnSeverson197243Female-AlexandriaMNUnited States-4:47:1811:09:12DNFDNFDNF
-BrettKettle31254Male-ManlyAUSAustralia-5:06:0211:11:14DNFDNFDNF
-JohnWicks51845Male-MissoulaMTUnited States-4:08:5111:12:50DNFDNFDNF
-AdamSetser37343Male-BakersfieldCAUnited States-5:03:2511:15:45DNFDNFDNF
-ArthurArnold6655Male-RedlandsCAUnited States-5:28:4011:16:00DNFDNFDNF
-CatraCorbett33351Female-FremontCAUnited States-4:38:4411:16:36DNFDNFDNF
-DanaMathew37640Female-RaleighNCUnited States-5:02:2011:18:57DNFDNFDNF
-YvetteGrabis81052Female-FolsomCAUnited States-5:19:1511:23:13DNFDNFDNF
-CarterRaines73026Male-BillingsMTUnited States-4:09:5611:25:13DNFDNFDNF
-DonnaPuga42829Female-El MonteCAUnited States-4:55:3311:26:55DNFDNFDNF
-RogerBurruss13455Male-Palm CityFLUnited States-5:08:5711:29:07DNFDNFDNF
-BernadetteDubois70856Female-Palm CityFLUnited States-5:06:3011:30:24DNFDNFDNF
-ScottLove5741Male-DelawareOHUnited States-5:00:0011:38:18DNFDNFDNF
-MarianCraig16962Female-Peace RiverABCanada-5:24:2911:40:02DNFDNFDNF
-JoeIngermanson20244Male-PeoriaAZUnited States-5:11:2111:41:47DNFDNFDNF
-EdLiu36046Male-San FranciscoCAUnited States-5:37:4811:51:15DNFDNFDNF
-JohnO'rourke38057Male-CliftonCOUnited States-5:19:4711:51:18DNFDNFDNF
-MichaelBryce12555Male-GualalaCAUnited States-4:50:0411:55:59DNFDNFDNF
-Seng-LaiTan48545Male-SudburyMAUnited States-5:24:4611:58:58DNFDNFDNF
-JamesYee53266Male-FolsomCAUnited States-5:55:5012:02:55DNFDNFDNF
-MeredithOneill40830Female-RichfieldMNUnited States-5:36:2512:05:41DNFDNFDNF
-AliceLam34553Female-North VancouverBCCanada-5:13:0012:16:22DNFDNFDNF
-HectorAleman4843Male-LakewoodCAUnited States-5:30:3912:18:13DNFDNFDNF
-TimothyBurke13347Male-St LouisMOUnited States-5:06:5712:19:07DNFDNFDNF
-TeranceLee35465Male-ChicagoILUnited States-5:44:2712:21:21DNFDNFDNF
-SamFiandaca70244Male-San PabloCAUnited States-5:13:2912:32:57DNFDNFDNF
-VidaAsh6755Female-Santa MonicaCAUnited States-5:34:5312:34:48DNFDNFDNF
-JohnKobylanski71537Male-SesserILUnited States-4:32:2212:35:35DNFDNFDNF
-MikeHolmes27860Male-RenoNVUnited States-5:52:4912:39:56DNFDNFDNF
-WayneMiles38870Male-El DoradoCAUnited States-4:58:3212:40:19DNFDNFDNF
-JeanneKysar-Carey34151Female-El Dorado HillsCAUnited States-4:56:3912:43:26DNFDNFDNF
-JosephJacobs29150Male-ModestoCAUnited States-5:18:2112:46:03DNFDNFDNF
-KarlJensen29467Male-North VancouverBCCanada-4:54:4412:51:41DNFDNFDNF
-JacquelineBrown12055Female-St. Albans BayVTUnited States-6:02:2713:15:29DNFDNFDNF
-NoahDuarte19741Male-Shelburne FallsMAUnited States-5:12:0313:24:41DNFDNFDNF
-MariaHoward37860Female-La CrescentaCAUnited States-5:33:5913:40:48DNFDNFDNF
-LoriMartin37442Female-GlendaleAZUnited States-5:13:0313:56:31DNFDNFDNF
-LynetteVanschoiack50048Female-ChallisIDUnited States-6:30:4314:42:29DNFDNFDNF
-KerryDuvall92351Female-SurreyBCCanada-5:24:5415:11:04DNFDNFDNF
-GeraldGodoy23748Male-HumbleTXUnited States-11:27:5817:40:39DNFDNFDNF
-BrianCobbin15638Male-PhoenixAZUnited States-4:30:4918:25:00DNFDNFDNF
-ToddSullivan58243Male-Fort WayneINUnited States-11:31:2518:52:25DNFDNFDNF
-KelseySwanson9519Female-GunnisonCOUnited States-12:03:4120:08:09DNFDNFDNF
-737-1Unknown-United States-58:11DNFDNFDNFDNF
-EricDeshaies7343Male-GatineauQCCanada-3:15:53DNFDNFDNFDNF
-JohnBurton13543Male-San JoseCAUnited States-3:19:47DNFDNFDNFDNF
-JordanCamastro71033Male-TucsonAZUnited States-3:21:52DNFDNFDNFDNF
-ChristofferJohnston29731Male-SummitNJUnited States-3:22:55DNFDNFDNFDNF
-MichaelCortez16630Male-NewcastleCAUnited States-3:43:58DNFDNFDNFDNF
-PaulNelson40340Male-MilwaukieORUnited States-3:52:33DNFDNFDNFDNF
-FredericGarderes13247Male-Thousand OaksCAUnited States-3:58:15DNFDNFDNFDNF
-JohnOsuch41340Male-GilbertAZUnited States-4:15:39DNFDNFDNFDNF
-TroyFrazer61349Male-IndianapolisINUnited States-4:17:21DNFDNFDNFDNF
-AndrewSchnepp45525Male-FairfieldCTUnited States-4:18:25DNFDNFDNFDNF
-SteveLing35956Male-CarlsbadCAUnited States-4:19:24DNFDNFDNFDNF
-DaveKrupski71839Male-Ponte VedraFLUnited States-4:23:19DNFDNFDNFDNF
-MatthewPopiel42234Male-TarzanaCAUnited States-4:30:10DNFDNFDNFDNF
-RodSinclair46843Male-CheltenhamGBRGreat Britain-4:35:31DNFDNFDNFDNF
-PredragKrkic33561Male-Western SpringsILUnited States-4:37:45DNFDNFDNFDNF
-StevenDueck91539Male-MesaAZUnited States-4:37:59DNFDNFDNFDNF
-KeithEndo20538Male-OxnardCAUnited States-4:38:26DNFDNFDNFDNF
-BillAndrews5164Male-RenoNVUnited States-4:44:07DNFDNFDNFDNF
-ScottJacaway28958Male-Downers GroveILUnited States-4:45:47DNFDNFDNFDNF
-PhilBegay8646Male-AlbuquerqueNMUnited States-4:45:51DNFDNFDNFDNF
-JoshGum21837Male-CorvallisORUnited States-4:49:18DNFDNFDNFDNF
-JohnKnoop24539Male-LaytonUTUnited States-5:05:08DNFDNFDNFDNF
-JonathanPerry81137Male-BrookevilleMDUnited States-5:07:14DNFDNFDNFDNF
-JamesSintef46954Male-SunlandCAUnited States-5:10:31DNFDNFDNFDNF
-HeathPeters47934Male-RosevilleCAUnited States-5:11:49DNFDNFDNFDNF
-DavidPauwelyn12854Male-North Las VegasNVUnited States-5:12:22DNFDNFDNFDNF
-LintHikes71738Male-AshlandORUnited States-5:13:21DNFDNFDNFDNF
-DavidKung33944Male-HillsboroughCAUnited States-5:14:08DNFDNFDNFDNF
-RobertWoods44952Male-LibertyNYUnited States-5:17:53DNFDNFDNFDNF
-RolandoRivera250842Male-ElginILUnited States-5:25:28DNFDNFDNFDNF
-MatthewWatts50760Male-BroomfieldCOUnited States-5:25:33DNFDNFDNFDNF
-AdrianBelitu8743Male-Corona Del MarCAUnited States-5:35:06DNFDNFDNFDNF
-JamesConner16452Male-ChandlerAZUnited States-5:35:20DNFDNFDNFDNF
-CourtneyBarry7836Female-TampaFLUnited States-5:41:59DNFDNFDNFDNF
-HalbertWalston50342Male-RadcliffKYUnited States-6:36:18DNFDNFDNFDNF
-FrankieEscobar91141Male-RiversideCAUnited States-7:20:55DNFDNFDNFDNF
-LouisKwan30038Male-Monterey ParkCAUnited States-13:06:08DNFDNFDNFDNF
-AmyDelaney18443Female-WheatlandCAUnited States-17:28:54DNFDNFDNFDNF
-KathyVictorino515059Female-PlacervilleCAUnited States-DNFDNFDNFDNFDNF
-JenOgden40739Female-Sandia ParkNMUnited States-DNFDNFDNFDNFDNF
-DanBrenden1365Male-PhoenixAZUnited States-DNFDNFDNFDNFDNF
-MaggieBeach8145Female-PasadenaCAUnited States-DNFDNFDNFDNFDNF